Location: Old Broadwell Mill Observatory
(33.8015°N, 85.8137°W)
Time: 21:55:50
(UTC-05:00)

Gurwin Techsat 1B - Visible Passes

Search period start: 04 July 2015 00:00
Search period end: 14 July 2015 00:00
Orbit: 813 x 813 km, 98.5° (Epoch: 04 July)

Date Brightness Start Highest point End Pass type
(mag) Time Alt. Az. Time Alt. Az. Time Alt. Az.
04 Jul 8.6 03:06:39 10° NNE 03:11:59 77° E 03:13:20 51° S visible
04 Jul 10.7 04:49:35 10° NW 04:51:23 11° WNW 04:52:51 10° W visible
05 Jul 9.3 02:44:07 10° NNE 02:49:12 45° E 02:50:17 40° SE visible
05 Jul 10.2 04:25:08 10° NNW 04:28:53 19° WNW 04:31:30 13° WSW visible
06 Jul 10.1 02:21:55 10° NE 02:26:19 27° E 02:27:14 26° ESE visible
06 Jul 9.6 04:01:39 10° N 04:06:18 31° WNW 04:08:27 23° WSW visible
07 Jul 10.7 02:00:18 10° NE 02:03:20 16° E 02:04:11 16° ESE visible
07 Jul 8.9 03:38:31 10° N 03:43:41 51° WNW 03:45:23 37° SW visible
08 Jul 8.5 03:15:39 10° NNE 03:21:00 86° WNW 03:22:20 53° SSW visible
09 Jul 9.0 02:53:01 10° NNE 02:58:15 57° E 02:59:17 48° SE visible
09 Jul 10.4 04:34:38 10° NNW 04:37:49 16° WNW 04:40:29 11° W visible
10 Jul 9.8 02:30:40 10° NNE 02:35:25 33° E 02:36:13 32° ESE visible
10 Jul 9.9 04:10:55 10° NNW 04:15:16 25° WNW 04:17:26 19° WSW visible
11 Jul 10.5 02:08:45 10° NE 02:12:29 20° E 02:13:09 20° ESE visible
11 Jul 9.2 03:47:40 10° N 03:52:40 41° WNW 03:54:22 32° WSW visible
12 Jul 11.1 01:48:05 10° ENE 01:49:26 11° E 01:50:05 11° E visible
12 Jul 8.6 03:24:42 10° N 03:30:00 70° WNW 03:31:18 50° SW visible
13 Jul 8.7 03:01:58 10° NNE 03:07:17 71° E 03:08:15 57° SSE visible
13 Jul 10.6 04:44:24 10° NW 04:46:44 13° WNW 04:48:46 10° W visible
